Torna al catalogo

DELTA 2 R/B(1)

AttivoLEO
NORAD 27665·ROCKET BODY·🇺🇸 United States

Lanciato Jan 29, 2003 da Cape Canaveral Space Force Station

Loading…

Prossimi Passaggi (prossime 24 ore)

TLE

AggiornatoSource: Space-Track

Epoca: Sep 14, 2026, 03:14 UTC

1 27665U 03005C   26257.13497516  .00000090  00000-0  67600-4 0  9994
2 27665  39.5746 191.1198 0009356 260.6124 116.1941 14.29576459233762

Traccia DELTA 2 R/B(1) in tempo reale con AllMySat

Download on the App Store